Regional Weather Roundup
Issued by NWS Charleston, SC

Current Version | Previous Version | Text Only | Print | Product List | Glossary Off
Versions: 1 2 3 4 5 6 7 8 9 10 11 12 13 14 15 16 17 18 19 20 21 22 23 24 25 26 27 28 29 30 31 32 33 34 35 36 37 38 39 40 41 42 43 44 45 46 47 48 49 50
561 ASUS42 KCHS 220428 RWRCHS REGIONAL WEATHER ROUNDUP NATIONAL WEATHER SERVICE CHARLESTON SC 1200 AM EDT FRI SEP 22 2017 NOTE: "FAIR" INDICATES FEW OR NO CLOUDS BELOW 12,000 FEET WITH NO SIGNIFICANT WEATHER AND/OR OBSTRUCTIONS TO VISIBILITY. NOT ALL STATIONS ARE QUALITY CONTROLLED. USE DATA WITH CAUTION... ESPECIALLY DEWPOINT OBSERVATIONS. SCZ027-030-031-034>040-042>050-220500- ...SOUTHEAST SOUTH CAROLINA... CITY SKY/WX TMP DP RH WIND PRES REMARKS N CHARLESTON PTCLDY 71 68 90 CALM 30.03R WATERFRONT PRK N/A 79 74 85 VRB3 29.87R JOHNS ISLAND FAIR 73 73 100 CALM 30.02S PINOPOLIS N/A 73 70 88 CALM 29.95R MONCKS CORNER FAIR 68 66 94 NE5 30.03S SUMMERVILLE FAIR 68 66 94 CALM 30.04S BEAUFORT MCAS MOCLDY 76 72 87 CALM 30.02S BEAUFORT ARPT FAIR 77 72 83 E3 30.02S HILTON HEAD IS PTCLDY 75 75 100 CALM 30.03S WALTERBORO PTCLDY 68 64 88 CALM 30.04R ALLENDALE NOT AVBL ...SOUTHERN MIDLANDS AND PEE DEE... CITY SKY/WX TMP DP RH WIND PRES REMARKS GEORGETOWN FAIR 70 70 100 CALM 30.04R KINGSTREE FAIR 64 63 94 CALM 30.04S ORANGEBURG CLEAR 70 65 84 CALM 30.03S BARNWELL FAIR 73 72 94 CALM 30.04R AIKEN FAIR 72 64 78 CALM 30.07S MANNING FAIR 68 55 64 CALM 30.04F COLUMBIA TSTM 73 65 75 SW13 30.03S SUMTER CLEAR 69 65 88 NE3 30.02S FLORENCE CLEAR 70 67 90 CALM 30.05R MYRTLE BEACH CLEAR 72 69 90 NW5 30.03F N MYRTLE BEACH CLEAR 71 69 93 CALM 30.02S $$ GAZ063-065-086>088-099>101-113>116-118-119-134>141-150-220500- ...SOUTHEAST GEORGIA... CITY SKY/WX TMP DP RH WIND PRES REMARKS SAVANNAH ARPT PTCLDY 77 73 87 CALM 30.02S HUNTER AAF PTCLDY 75 73 91 SE5 29.99S FORT STEWART PTCLDY 73 71 92 CALM 29.99F STATESBORO PTCLDY 72 69 90 CALM 30.02S SYLVANIA MOCLDY 70 70 100 CALM 30.04S CLAXTON FAIR 74 73 95 CALM 30.02S ...CSRA...CENTRAL AND FAR SOUTHEAST GEORGIA... CITY SKY/WX TMP DP RH WIND PRES REMARKS THOMSON CLEAR 71 68 92 CALM 30.08S AUGUSTA-BUSH CLEAR 71 68 90 CALM 30.01F AUGUSTA-DANIEL CLEAR 76 66 71 CALM 30.03F SWAINSBORO FAIR 70 70 100 CALM 30.03F VIDALIA CLOUDY 73 72 94 CALM 30.02F EASTMAN FAIR 72 70 95 CALM 30.04F HAZLEHURST FAIR 75 65 70 CALM 30.01S ALMA CLOUDY 72 71 97 CALM 30.01S FOG WAYCROSS CLEAR 74 71 89 CALM 30.02S JESUP NOT AVBL BAXLEY FAIR 72 72 100 CALM 30.02R BRUNSWICK CLOUDY 73 70 88 CALM 30.03R SAINT SIMONS CLOUDY 80 74 81 E9 30.01R $$ SCZ027-028-034-036>038-045-046-048>050-GAZ119-141-220500- ...LAKE AND SUPPLEMENTAL COASTAL OBSERVATIONS... STATION/POSITION TIME TEMP WIND PRES WAVE SWELL AIR SEA DIR/SP/G HT/PER HT/PER/DIR (UTC) (F) (DEG/KT/KT) (MB) (FT/S) (FT/S/D) WINYAH BAY 0245 78 140/ 10 1016.0 LAKE MURRAY 0320 80 120/ 4/ 7 1016.3 ACE BASIN NERRS 0245 73 CALM 1016.0 FORT PULASKI 0342 78 80 150/ 2/ 3 1016.9R SAPELO ISLAND 0300 77 CALM 1016.0 $$ ANZ835-935-AMZ111-154-330-350-352-354-370-450-454-472-220500- ...C-MAN AND BUOY OBSERVATIONS... STATION/POSITION TIME TEMP WIND PRES WAVE SWELL AIR SEA DIR/SP/G HT/PER HT/PER/DIR (UTC) (F) (DEG/KT/KT) (MB) (FT/S) (FT/S/D) BUOY 41004 0350 80 82 100/ 4/ 6 1016.1F 2/11 2/110/11 BUOY 41008 0350 80 81 100/ 8/ 10 1016.0F 2/11 2/130/11 FOLLY BEACH CMAN 0400 80 130/ 4/ 4 1017.2S CAPERS NEARSHORE 0308 77 81 130/ 8/ 10 1016.4R FRIPP NEARSHORE 0308 80 150/ 4/ 6 1021.4R STATION/POSITION TIME TEMP WIND PRES WAVE SWELL AIR SEA DIR/SP/G HT/PER HT/PER/DIR (UTC) (F) (DEG/KT/KT) (MB) (FT/S) (FT/S/D) 5E ST. MARYS GA 0330 83 N/A 2/12 2/ 90/12 FRYING PAN BUOY 0350 79 82 40/ 14/ 16 1016.0R 3/11 3/110/11 BUOY 41025 0350 75 75 50/ 4/ 6 1017.3F 5/10 5/ 60/10 CAPE LOOKOUT NC 0400 77 70/ 9/ 11 1017.2R BUOY 41002 0350 78 81 160/ 2/ 4 1016.9S 5/11 5/ 30/11 BUOY 41010 0350 70/ 12/ 16 1015.1F 5/11 5/11 ST AUGUSTINE FL 0400 81 84 80/ 11/ 14 1015.9S $$

USA.gov is the U.S. government's official web portal to all federal, state and local government web resources and services.